User: anonymous   Login
Location: Unspecified
(0.0000°N, 0.0000°E)
Time: 20:10:22
(UTC+02:00)
Language:

OPAL - Orbit

View from above orbital plane
View from above orbital plane
View from above satellite
View from above satellite

Ground track
Ground track

The orbit data is extracted from the following two-line orbital elements,

1 26063U 00004C   17269.13277174 -.00000015  00000-0  15098-4 0  9992
2 26063 100.2274 291.5431 0036763  25.2293 335.0673 14.36674920925878
Epoch (UTC): 26 September 2017 03:11:11
Eccentricity: 0.0036763
inclination: 100.2274°
perigee height: 743 km
apogee height: 796 km
right ascension of ascending node: 291.5431°
argument of perigee: 25.2293°
revolutions per day: 14.36674920
mean anomaly at epoch: 335.0673°
orbit number at epoch: 92587

The dashed part of the orbit path shows where the satellite is in the earth's shadow,  

DLR